Tracking 20383 objects as of 23-Feb-2020
HD Live streaming from Space Station
objects crossing your sky now
Track the group of recently launched Starlink satellites

CARTOSAT-1

Track CARTOSAT-1 now!
10-day predictions
CARTOSAT-1 is classified as:


NORAD ID: 28649
Int'l Code: 2005-017A
Perigee: 622.9 km
Apogee: 626.8 km
Inclination: 97.8 °
Period: 97.1 minutes
Semi major axis: 6995 km
RCS: 4.7551 m2 (large)
Launch date: May 5, 2005
Source: India (IND)
Launch site: SRIHARIKOTA (SRI)

Remote sensing and mapping, land use, forest cover, river flow assessments.
aabbcc
Your satellite tracking list
Your tracking list is empty




NASA's NSSDC Master Catalog

Two Line Element Set (TLE):
1 28649U 05017A   20054.45196546  .00000078  00000-0  15730-4 0  9998
2 28649  97.8260 125.7248 0002819  96.9769 263.1766 14.83680601801465
Source of the keplerian elements: AFSPC